Home > Weather > Williams Lake > Past weeks

Flag for Canada Weather for the Past 2 Weeks in Williams Lake, British Columbia, Canada

Now
39 °F

Partly sunny.


Feels Like: 34 °F
Forecast: 30 / 39 °F
Wind: 8 mph from Southeast

Location: Williams Lake

Current Time: Feb 8, 2016 at 5:54:23 PM

Latest Report: Feb 8, 2016 at 5:00 PM


Visibility: 15 mi

Pressure: 30.50 "Hg (28.30 "Hg at 607m altitude)

Humidity: 70%

Dew point: 30 °F

Location of Williams LakeLocation

Historic Weather in Williams Lake — Graph

°F

Williams Lake Temperature Yesterday

Maximum temperature yesterday: 34 °F (at 1:00 PM)
Minimum temperature yesterday: 19 °F (at 2:00 AM)
Average temperature yesterday: 28 °F

High & Low Weather Summary for the Past Weeks

 TemperatureHumidityPressure
High46 °F (Jan 28, 1:00 PM)100% (Jan 24, 8:00 PM)30.56 "Hg (Jan 24, 8:00 PM)
Low14 °F (Feb 3, 4:00 AM)34% (Jan 28, 2:00 PM)29.49 "Hg (Jan 28, 6:00 AM)
Average30 °F78%30.06 "Hg
* Reported Jan 24 4:00 PM — Feb 8 4:00 PM, Williams Lake, Weather by CustomWeather, © 2016

Note: Actual official high and low records may vary slightly from our data, if they occured in-between our weather recording intervals... More about our weather records

Advertising

Williams Lake Weather History for the Previous 24 Hours

 ConditionsComfort  
Time TempWeatherWind HumidityBarometerVisibility
4:00 PM
Mon, Feb 8
41 °FPartly sunny.8 mph70%30.48 "Hg15 mi
3:00 PM39 °FPartly sunny.12 mph70%30.48 "Hg15 mi
2:00 PM39 °FPartly sunny.12 mph70%30.48 "Hg15 mi
1:00 PM37 °FPartly sunny.10 mph75%30.49 "Hg15 mi
12:00 PM36 °FBroken clouds.10 mph75%30.51 "Hg15 mi
11:00 AM34 °FPartly sunny.8 mph81%30.52 "Hg15 mi
10:00 AM32 °FMostly cloudy.7 mph80%30.52 "Hg15 mi
9:00 AM30 °FBroken clouds.9 mph86%30.53 "Hg15 mi
8:00 AM28 °FBroken clouds.3 mph86%30.53 "Hg15 mi
7:00 AM30 °FPassing clouds.8 mph80%30.53 "Hg15 mi
6:00 AM28 °FPassing clouds.3 mph86%30.54 "Hg15 mi
5:00 AM28 °FPassing clouds.6 mph80%30.53 "Hg15 mi
4:00 AM30 °FPassing clouds.8 mph80%30.52 "Hg15 mi
3:00 AM30 °FPassing clouds.7 mph80%30.53 "Hg15 mi
2:00 AM30 °FPassing clouds.8 mph80%30.53 "Hg15 mi
1:00 AM30 °FPassing clouds.9 mph80%30.53 "Hg15 mi
12:00 AM30 °FPassing clouds.9 mph75%30.53 "Hg15 mi
11:00 PM
Sun, Feb 7
32 °FPassing clouds.9 mph69%30.52 "Hg15 mi
10:00 PM32 °FPassing clouds.12 mph69%30.52 "Hg15 mi
9:00 PM32 °FPassing clouds.13 mph69%30.54 "Hg15 mi
8:00 PM30 °FPassing clouds.10 mph75%30.56 "Hg15 mi
7:00 PM32 °FPassing clouds.15 mph64%30.55 "Hg15 mi
6:00 PM32 °FPassing clouds.14 mph69%30.54 "Hg15 mi
5:00 PM34 °FBroken clouds.15 mph65%30.55 "Hg15 mi
Weather by CustomWeather, © 2016

See weather overviewHow to use our weather pages